START_TIME,STEP,MOV.,EG07,t_acc.,EG08,t_acc.,EG09,t_acc.,EB05,t_acc.,EBP05,t_acc.
1979-07-01 09:00:23.810 ,0,0,0.,1.2,0.,1.2,0.,1.2,,0.0,,0.0
1979-07-01 09:00:25.010 ,0,0,0.,1.2,0.,1.2,0.,1.2,,0.0,,0.0
1979-07-01 09:00:26.210 ,0,0,0.,1.2,0.,1.2,0.,1.2,,0.0,,0.0
1979-07-01 09:00:27.410 ,0,0,0.,1.2,0.,1.2,0.,1.2,,0.0,,0.0
1979-07-01 09:00:28.610 ,0,0,0.,1.2,0.,1.2,0.,1.2,,0.0,,0.0
1979-07-01 09:00:29.810 ,0,0,1.,1.2,0.,1.2,0.,1.2,,0.0,,0.0
1979-07-01 09:00:31.010 ,0,0,0.,1.2,0.,1.2,0.,1.2,,0.0,,0.0
1979-07-01 09:00:32.210 ,0,0,0.,1.2,0.,1.2,0.,1.2,,0.0,,0.0
1979-07-01 09:00:33.410 ,0,0,0.,1.2,0.,1.2,0.,1.2,,0.0,,0.0
1979-07-01 09:00:34.610 ,0,0,1.,1.2,1.,1.2,0.,1.2,,0.0,,0.0
1979-07-01 09:00:35.810 ,0,0,0.,1.2,0.,1.2,0.,1.2,,0.0,,0.0
1979-07-01 09:00:37.010 ,0,0,1.,1.2,0.,1.2,0.,1.2,,0.0,,0.0
1979-07-01 09:00:38.210 ,0,0,0.,1.2,0.,1.2,0.,1.2,,0.0,,0.0
1979-07-01 09:00:39.410 ,0,0,0.,1.2,0.,1.2,0.,1.2,,0.0,,0.0
1979-07-01 09:00:40.610 ,0,0,0.,1.2,0.,1.2,0.,1.2,,0.0,,0.0
1979-07-01 09:00:41.810 ,0,0,0.,1.2,0.,1.2,0.,1.2,,0.0,,0.0
1979-07-01 09:00:43.010 ,0,0,0.,1.2,0.,1.2,0.,1.2,,0.0,,0.0
1979-07-01 09:00:44.210 ,0,0,0.,1.2,0.,1.2,0.,1.2,,0.0,,0.0
1979-07-01 09:00:45.410 ,0,0,0.,1.2,0.,1.2,0.,1.2,,0.0,,0.0
1979-07-01 09:00:46.610 ,0,0,0.,1.2,0.,1.2,0.,1.2,,0.0,,0.0
1979-07-01 09:00:47.810 ,0,0,0.,1.2,0.,1.2,0.,1.2,,0.0,,0.0
1979-07-01 09:00:49.010 ,0,0,0.,1.2,0.,1.2,0.,1.2,,0.0,,0.0
1979-07-01 09:00:50.210 ,0,0,0.,1.2,0.,1.2,0.,1.2,,0.0,,0.0
1979-07-01 09:00:51.410 ,0,0,0.,1.2,0.,1.2,0.,1.2,,0.0,,0.0
1979-07-01 09:00:52.610 ,0,0,0.,1.2,0.,1.2,0.,1.2,,0.0,,0.0
1979-07-01 09:00:53.810 ,0,0,0.,1.2,0.,1.2,0.,1.2,,0.0,,0.0
1979-07-01 09:00:55.010 ,0,0,0.,1.2,0.,1.2,0.,1.2,,0.0,,0.0
1979-07-01 09:00:56.210 ,0,0,0.,1.2,0.,1.2,0.,1.2,,0.0,,0.0
1979-07-01 09:00:57.410 ,0,0,0.,1.2,0.,1.2,0.,1.2,,0.0,,0.0
1979-07-01 09:00:58.610 ,0,0,0.,1.2,0.,1.2,0.,1.2,,0.0,,0.0
1979-07-01 09:00:59.810 ,0,0,0.,1.2,0.,1.2,0.,1.2,,0.0,,0.0
1979-07-01 09:01:01.010 ,0,0,0.,1.2,0.,1.2,0.,1.2,,0.0,,0.0
1979-07-01 09:01:02.210 ,0,0,0.,1.2,0.,1.2,0.,1.2,,0.0,,0.0
1979-07-01 09:01:03.410 ,0,0,0.,1.2,0.,1.2,0.,1.2,,0.0,,0.0
1979-07-01 09:01:04.610 ,0,0,0.,1.2,0.,1.2,0.,1.2,,0.0,,0.0
1979-07-01 09:01:05.810 ,0,0,0.,1.2,0.,1.2,0.,1.2,,0.0,,0.0
1979-07-01 09:01:07.010 ,0,0,0.,1.2,0.,1.2,0.,1.2,,0.0,,0.0
1979-07-01 09:01:08.210 ,0,0,0.,1.2,0.,1.2,0.,1.2,,0.0,,0.0
1979-07-01 09:01:09.410 ,0,0,0.,1.2,0.,1.2,0.,1.2,,0.0,,0.0
1979-07-01 09:01:10.610 ,0,0,0.,1.2,0.,1.2,0.,1.2,,0.0,,0.0
1979-07-01 09:01:11.810 ,0,0,0.,1.2,0.,1.2,0.,1.2,,0.0,,0.0
1979-07-01 09:01:13.010 ,0,0,0.,1.2,0.,1.2,0.,1.2,,0.0,,0.0
1979-07-01 09:01:14.210 ,0,0,0.,1.2,0.,1.2,0.,1.2,,0.0,,0.0
1979-07-01 09:01:15.410 ,0,0,0.,1.2,0.,1.2,0.,1.2,,0.0,,0.0
1979-07-01 09:01:16.610 ,0,0,0.,1.2,0.,1.2,0.,1.2,,0.0,,0.0
1979-07-01 09:01:17.810 ,0,0,0.,1.2,0.,1.2,0.,1.2,,0.0,,0.0
1979-07-01 09:01:19.010 ,0,0,1.,1.2,0.,1.2,0.,1.2,,0.0,,0.0
1979-07-01 09:01:20.210 ,0,0,0.,1.2,0.,1.2,0.,1.2,,0.0,,0.0
1979-07-01 09:01:21.410 ,0,0,1.,1.2,1.,1.2,0.,1.2,,0.0,,0.0
1979-07-01 09:01:22.610 ,0,0,0.,1.2,0.,1.2,0.,1.2,,0.0,,0.0
1979-07-01 09:01:23.810 ,0,0,0.,1.2,0.,1.2,0.,1.2,,0.0,,0.0
1979-07-01 09:01:25.010 ,0,0,2.,1.2,1.,1.2,1.,1.2,,0.0,,0.0
1979-07-01 09:01:26.210 ,0,0,0.,1.2,0.,1.2,0.,1.2,,0.0,,0.0
1979-07-01 09:01:27.410 ,0,0,0.,1.2,0.,1.2,0.,1.2,,0.0,,0.0
1979-07-01 09:01:28.610 ,0,0,1.,1.2,1.,1.2,0.,1.2,,0.0,,0.0
1979-07-01 09:01:29.810 ,0,0,0.,1.2,0.,1.2,0.,1.2,,0.0,,0.0
1979-07-01 09:01:31.010 ,0,0,0.,1.2,0.,1.2,0.,1.2,,0.0,,0.0
1979-07-01 09:01:32.210 ,0,0,0.,1.2,0.,1.2,0.,1.2,,0.0,,0.0
1979-07-01 09:01:33.410 ,0,0,0.,1.2,0.,1.2,0.,1.2,,0.0,,0.0
1979-07-01 09:01:34.610 ,0,0,0.,1.2,0.,1.2,0.,1.2,,0.0,,0.0
1979-07-01 09:01:35.810 ,1,0,0.,1.2,0.,1.2,0.,1.2,,0.0,,0.0
1979-07-01 09:01:37.010 ,1,0,0.,1.2,0.,1.2,0.,1.2,,0.0,,0.0
1979-07-01 09:01:38.210 ,1,0,1.,1.2,0.,1.2,0.,1.2,,0.0,,0.0
1979-07-01 09:01:39.410 ,1,0,0.,1.2,0.,1.2,0.,1.2,,0.0,,0.0
1979-07-01 09:01:40.610 ,1,0,0.,1.2,0.,1.2,0.,1.2,,0.0,,0.0
1979-07-01 09:01:41.810 ,1,0,0.,1.2,0.,1.2,0.,1.2,,0.0,,0.0
1979-07-01 09:01:43.010 ,1,0,0.,1.2,0.,1.2,0.,1.2,,0.0,,0.0
1979-07-01 09:01:44.210 ,1,0,0.,1.2,0.,1.2,0.,1.2,,0.0,,0.0
1979-07-01 09:01:45.410 ,1,0,1.,1.2,0.,1.2,0.,1.2,,0.0,,0.0
1979-07-01 09:01:46.610 ,1,0,0.,1.2,0.,1.2,0.,1.2,,0.0,,0.0
1979-07-01 09:01:47.810 ,1,0,2.,1.2,1.,1.2,1.,1.2,,0.0,,0.0
1979-07-01 09:01:49.010 ,1,0,0.,1.2,0.,1.2,0.,1.2,,0.0,,0.0
1979-07-01 09:01:50.210 ,1,0,0.,1.2,0.,1.2,0.,1.2,,0.0,,0.0
1979-07-01 09:01:51.410 ,1,0,0.,1.2,0.,1.2,0.,1.2,,0.0,,0.0
1979-07-01 09:01:52.610 ,1,0,0.,1.2,0.,1.2,0.,1.2,,0.0,,0.0
1979-07-01 09:01:53.810 ,1,0,0.,1.2,0.,1.2,0.,1.2,,0.0,,0.0
1979-07-01 09:01:55.010 ,1,0,0.,1.2,0.,1.2,0.,1.2,,0.0,,0.0
1979-07-01 09:01:56.210 ,1,0,0.,1.2,0.,1.2,0.,1.2,,0.0,,0.0
1979-07-01 09:01:57.410 ,1,0,0.,1.2,0.,1.2,0.,1.2,,0.0,,0.0
1979-07-01 09:01:58.610 ,1,0,1.,1.2,1.,1.2,1.,1.2,,0.0,,0.0
1979-07-01 09:01:59.810 ,1,0,0.,1.2,0.,1.2,0.,1.2,,0.0,,0.0
1979-07-01 09:02:01.010 ,1,0,0.,1.2,0.,1.2,0.,1.2,,0.0,,0.0
1979-07-01 09:02:02.210 ,1,0,0.,1.2,0.,1.2,0.,1.2,,0.0,,0.0
1979-07-01 09:02:03.410 ,1,0,0.,1.2,0.,1.2,0.,1.2,,0.0,,0.0
1979-07-01 09:02:04.610 ,1,0,0.,1.2,0.,1.2,0.,1.2,,0.0,,0.0
1979-07-01 09:02:05.810 ,1,0,0.,1.2,0.,1.2,0.,1.2,,0.0,,0.0
1979-07-01 09:02:07.010 ,1,0,2.,1.2,2.,1.2,1.,1.2,,0.0,,0.0
1979-07-01 09:02:08.210 ,1,0,1.,1.2,0.,1.2,0.,1.2,,0.0,,0.0
1979-07-01 09:02:09.410 ,1,0,0.,1.2,0.,1.2,0.,1.2,,0.0,,0.0
1979-07-01 09:02:10.610 ,1,0,0.,1.2,0.,1.2,0.,1.2,,0.0,,0.0
1979-07-01 09:02:11.810 ,1,0,0.,1.2,0.,1.2,0.,1.2,,0.0,,0.0
1979-07-01 09:02:13.010 ,1,0,0.,1.2,0.,1.2,0.,1.2,,0.0,,0.0
1979-07-01 09:02:14.210 ,1,0,0.,1.2,0.,1.2,0.,1.2,,0.0,,0.0
1979-07-01 09:02:15.410 ,1,0,1.,1.2,0.,1.2,0.,1.2,,0.0,,0.0
1979-07-01 09:02:16.610 ,1,0,0.,1.2,0.,1.2,0.,1.2,,0.0,,0.0
1979-07-01 09:02:17.810 ,1,0,0.,1.2,0.,1.2,0.,1.2,,0.0,,0.0
1979-07-01 09:02:19.010 ,1,0,0.,1.2,0.,1.2,0.,1.2,,0.0,,0.0
1979-07-01 09:02:20.210 ,1,0,2.,1.2,2.,1.2,0.,1.2,,0.0,,0.0
1979-07-01 09:02:21.410 ,1,0,0.,1.2,0.,1.2,0.,1.2,,0.0,,0.0
1979-07-01 09:02:22.610 ,1,0,0.,1.2,0.,1.2,0.,1.2,,0.0,,0.0
1979-07-01 09:02:23.810 ,2,0,0.,1.2,0.,1.2,0.,1.2,,0.0,,0.0
1979-07-01 09:02:25.010 ,2,0,0.,1.2,0.,1.2,0.,1.2,,0.0,,0.0
1979-07-01 09:02:26.210 ,2,0,0.,1.2,0.,1.2,0.,1.2,,0.0,,0.0
1979-07-01 09:02:27.410 ,2,0,0.,1.2,0.,1.2,0.,1.2,,0.0,,0.0
1979-07-01 09:02:28.610 ,2,0,0.,1.2,0.,1.2,0.,1.2,,0.0,,0.0
1979-07-01 09:02:29.810 ,2,0,0.,1.2,0.,1.2,0.,1.2,,0.0,,0.0
1979-07-01 09:02:31.010 ,2,0,0.,1.2,0.,1.2,0.,1.2,,0.0,,0.0
1979-07-01 09:02:32.210 ,2,0,0.,1.2,0.,1.2,0.,1.2,,0.0,,0.0
1979-07-01 09:02:33.410 ,2,0,0.,1.2,0.,1.2,0.,1.2,,0.0,,0.0
1979-07-01 09:02:34.610 ,2,0,0.,1.2,0.,1.2,0.,1.2,,0.0,,0.0
1979-07-01 09:02:35.810 ,2,0,0.,1.2,0.,1.2,0.,1.2,,0.0,,0.0
1979-07-01 09:02:37.010 ,2,0,1.,1.2,1.,1.2,0.,1.2,,0.0,,0.0
1979-07-01 09:02:38.210 ,2,0,0.,1.2,0.,1.2,0.,1.2,,0.0,,0.0
1979-07-01 09:02:39.410 ,2,0,1.,1.2,0.,1.2,0.,1.2,,0.0,,0.0
1979-07-01 09:02:40.610 ,2,0,0.,1.2,0.,1.2,0.,1.2,,0.0,,0.0
1979-07-01 09:02:41.810 ,2,0,0.,1.2,0.,1.2,0.,1.2,,0.0,,0.0
1979-07-01 09:02:43.010 ,2,0,0.,1.2,0.,1.2,0.,1.2,,0.0,,0.0
1979-07-01 09:02:44.210 ,2,0,0.,1.2,0.,1.2,0.,1.2,,0.0,,0.0
1979-07-01 09:02:45.410 ,2,0,0.,1.2,0.,1.2,0.,1.2,,0.0,,0.0
1979-07-01 09:02:46.610 ,2,0,1.,1.2,1.,1.2,0.,1.2,,0.0,,0.0
1979-07-01 09:02:47.810 ,2,0,0.,1.2,0.,1.2,0.,1.2,,0.0,,0.0
1979-07-01 09:02:49.010 ,2,0,0.,1.2,0.,1.2,0.,1.2,,0.0,,0.0
1979-07-01 09:02:50.210 ,2,0,0.,1.2,0.,1.2,0.,1.2,,0.0,,0.0
1979-07-01 09:02:51.410 ,2,0,0.,1.2,0.,1.2,0.,1.2,,0.0,,0.0
1979-07-01 09:02:52.610 ,2,0,0.,1.2,0.,1.2,0.,1.2,,0.0,,0.0
1979-07-01 09:02:53.810 ,2,0,0.,1.2,0.,1.2,0.,1.2,,0.0,,0.0
1979-07-01 09:02:55.010 ,2,0,0.,1.2,0.,1.2,0.,1.2,,0.0,,0.0
1979-07-01 09:02:56.210 ,2,0,1.,1.2,0.,1.2,0.,1.2,,0.0,,0.0
1979-07-01 09:02:57.410 ,2,0,1.,1.2,1.,1.2,0.,1.2,,0.0,,0.0
1979-07-01 09:02:58.610 ,2,0,0.,1.2,0.,1.2,0.,1.2,,0.0,,0.0
1979-07-01 09:02:59.810 ,2,0,0.,1.2,0.,1.2,0.,1.2,,0.0,,0.0
1979-07-01 09:03:01.010 ,2,0,1.,1.2,0.,1.2,0.,1.2,,0.0,,0.0
1979-07-01 09:03:02.210 ,2,0,2.,1.2,0.,1.2,0.,1.2,,0.0,,0.0
1979-07-01 09:03:03.410 ,2,0,0.,1.2,0.,1.2,0.,1.2,,0.0,,0.0
1979-07-01 09:03:04.610 ,2,0,0.,1.2,0.,1.2,0.,1.2,,0.0,,0.0
1979-07-01 09:03:05.810 ,2,0,0.,1.2,0.,1.2,0.,1.2,,0.0,,0.0
1979-07-01 09:03:07.010 ,2,0,0.,1.2,0.,1.2,0.,1.2,,0.0,,0.0
1979-07-01 09:03:08.210 ,2,0,1.,1.2,1.,1.2,0.,1.2,,0.0,,0.0
1979-07-01 09:03:09.410 ,2,0,0.,1.2,0.,1.2,0.,1.2,,0.0,,0.0
1979-07-01 09:03:10.610 ,2,0,0.,1.2,0.,1.2,0.,1.2,,0.0,,0.0
1979-07-01 09:03:11.810 ,3,0,0.,1.2,0.,1.2,0.,1.2,,0.0,,0.0
1979-07-01 09:03:13.010 ,3,0,0.,1.2,0.,1.2,0.,1.2,,0.0,,0.0
1979-07-01 09:03:14.210 ,3,0,0.,1.2,0.,1.2,0.,1.2,,0.0,,0.0
1979-07-01 09:03:15.410 ,3,0,0.,1.2,0.,1.2,0.,1.2,,0.0,,0.0
1979-07-01 09:03:16.610 ,3,0,0.,1.2,0.,1.2,0.,1.2,,0.0,,0.0
1979-07-01 09:03:17.810 ,3,0,0.,1.2,0.,1.2,0.,1.2,,0.0,,0.0
1979-07-01 09:03:19.010 ,3,0,1.,1.2,0.,1.2,0.,1.2,,0.0,,0.0
1979-07-01 09:03:20.210 ,3,0,0.,1.2,0.,1.2,0.,1.2,,0.0,,0.0
1979-07-01 09:03:21.410 ,3,0,0.,1.2,0.,1.2,0.,1.2,,0.0,,0.0
1979-07-01 09:03:22.610 ,3,0,0.,1.2,0.,1.2,0.,1.2,,0.0,,0.0
1979-07-01 09:03:23.810 ,3,0,0.,1.2,0.,1.2,0.,1.2,,0.0,,0.0
1979-07-01 09:03:25.010 ,3,0,0.,1.2,0.,1.2,0.,1.2,,0.0,,0.0
1979-07-01 09:03:26.210 ,3,0,0.,1.2,0.,1.2,0.,1.2,,0.0,,0.0
1979-07-01 09:03:27.410 ,3,0,0.,1.2,0.,1.2,0.,1.2,,0.0,,0.0
1979-07-01 09:03:28.610 ,3,0,1.,1.2,0.,1.2,0.,1.2,,0.0,,0.0
1979-07-01 09:03:29.810 ,3,0,0.,1.2,0.,1.2,0.,1.2,,0.0,,0.0
1979-07-01 09:03:31.010 ,3,0,0.,1.2,0.,1.2,0.,1.2,,0.0,,0.0
1979-07-01 09:03:32.210 ,3,0,0.,1.2,0.,1.2,0.,1.2,,0.0,,0.0
1979-07-01 09:03:33.410 ,3,0,0.,1.2,0.,1.2,0.,1.2,,0.0,,0.0
1979-07-01 09:03:34.610 ,3,0,1.,1.2,1.,1.2,0.,1.2,,0.0,,0.0
1979-07-01 09:03:35.810 ,3,0,1.,1.2,0.,1.2,0.,1.2,,0.0,,0.0
1979-07-01 09:03:37.010 ,3,0,1.,1.2,0.,1.2,0.,1.2,,0.0,,0.0
1979-07-01 09:03:38.210 ,3,0,0.,1.2,0.,1.2,0.,1.2,,0.0,,0.0
1979-07-01 09:03:39.410 ,3,0,0.,1.2,0.,1.2,0.,1.2,,0.0,,0.0
1979-07-01 09:03:40.610 ,3,0,2.,1.2,2.,1.2,0.,1.2,,0.0,,0.0
1979-07-01 09:03:41.810 ,3,0,1.,1.2,0.,1.2,0.,1.2,,0.0,,0.0
1979-07-01 09:03:43.010 ,3,0,0.,1.2,0.,1.2,0.,1.2,,0.0,,0.0
1979-07-01 09:03:44.210 ,3,0,0.,1.2,0.,1.2,0.,1.2,,0.0,,0.0
1979-07-01 09:03:45.410 ,3,0,0.,1.2,0.,1.2,0.,1.2,,0.0,,0.0
1979-07-01 09:03:46.610 ,3,0,1.,1.2,0.,1.2,0.,1.2,,0.0,,0.0
1979-07-01 09:03:47.810 ,3,0,0.,1.2,0.,1.2,0.,1.2,,0.0,,0.0
1979-07-01 09:03:49.010 ,3,0,0.,1.2,0.,1.2,0.,1.2,,0.0,,0.0
1979-07-01 09:03:50.210 ,3,0,0.,1.2,0.,1.2,0.,1.2,,0.0,,0.0
1979-07-01 09:03:51.410 ,3,0,0.,1.2,0.,1.2,0.,1.2,,0.0,,0.0
1979-07-01 09:03:52.610 ,3,0,0.,1.2,0.,1.2,0.,1.2,,0.0,,0.0
1979-07-01 09:03:53.810 ,3,0,0.,1.2,0.,1.2,0.,1.2,,0.0,,0.0
1979-07-01 09:03:55.010 ,3,0,0.,1.2,0.,1.2,0.,1.2,,0.0,,0.0
1979-07-01 09:03:56.210 ,3,0,0.,1.2,0.,1.2,0.,1.2,,0.0,,0.0
1979-07-01 09:03:57.410 ,3,0,0.,1.2,0.,1.2,0.,1.2,,0.0,,0.0
1979-07-01 09:03:58.610 ,3,0,0.,1.2,0.,1.2,0.,1.2,,0.0,,0.0
1979-07-01 09:03:59.810 ,4,0,0.,1.2,0.,1.2,0.,1.2,,0.0,,0.0
1979-07-01 09:04:01.010 ,4,0,0.,1.2,0.,1.2,0.,1.2,,0.0,,0.0
1979-07-01 09:04:02.210 ,4,0,0.,1.2,0.,1.2,0.,1.2,,0.0,,0.0
1979-07-01 09:04:03.410 ,4,0,0.,1.2,0.,1.2,0.,1.2,,0.0,,0.0
1979-07-01 09:04:04.610 ,4,0,0.,1.2,0.,1.2,0.,1.2,,0.0,,0.0
1979-07-01 09:04:05.810 ,4,0,0.,1.2,0.,1.2,0.,1.2,,0.0,,0.0
1979-07-01 09:04:07.010 ,4,0,1.,1.2,1.,1.2,0.,1.2,,0.0,,0.0
1979-07-01 09:04:08.210 ,4,0,1.,1.2,1.,1.2,0.,1.2,,0.0,,0.0
1979-07-01 09:04:09.410 ,4,0,0.,1.2,0.,1.2,0.,1.2,,0.0,,0.0
1979-07-01 09:04:10.610 ,4,0,1.,1.2,1.,1.2,0.,1.2,,0.0,,0.0
1979-07-01 09:04:11.810 ,4,0,1.,1.2,0.,1.2,0.,1.2,,0.0,,0.0
1979-07-01 09:04:13.010 ,4,0,0.,1.2,0.,1.2,0.,1.2,,0.0,,0.0
1979-07-01 09:04:14.210 ,4,0,1.,1.2,0.,1.2,0.,1.2,,0.0,,0.0
1979-07-01 09:04:15.410 ,4,0,1.,1.2,0.,1.2,0.,1.2,,0.0,,0.0
1979-07-01 09:04:16.610 ,4,0,0.,1.2,0.,1.2,0.,1.2,,0.0,,0.0
1979-07-01 09:04:17.810 ,4,0,0.,1.2,0.,1.2,0.,1.2,,0.0,,0.0
1979-07-01 09:04:19.010 ,4,0,0.,1.2,0.,1.2,0.,1.2,,0.0,,0.0
1979-07-01 09:04:20.210 ,4,0,0.,1.2,0.,1.2,0.,1.2,,0.0,,0.0
1979-07-01 09:04:21.410 ,4,0,0.,1.2,0.,1.2,0.,1.2,,0.0,,0.0
1979-07-01 09:04:22.610 ,4,0,0.,1.2,0.,1.2,0.,1.2,,0.0,,0.0
1979-07-01 09:04:23.810 ,0,0,0.,1.2,0.,1.2,0.,1.2,,0.0,,0.0
1979-07-01 09:04:25.010 ,0,0,0.,1.2,0.,1.2,0.,1.2,,0.0,,0.0
1979-07-01 09:04:26.210 ,0,0,0.,1.2,0.,1.2,0.,1.2,,0.0,,0.0
1979-07-01 09:04:27.410 ,0,0,0.,1.2,0.,1.2,0.,1.2,,0.0,,0.0
1979-07-01 09:04:28.610 ,0,0,1.,1.2,0.,1.2,0.,1.2,,0.0,,0.0
1979-07-01 09:04:29.810 ,0,0,0.,1.2,0.,1.2,0.,1.2,,0.0,,0.0
1979-07-01 09:04:31.010 ,0,0,0.,1.2,0.,1.2,0.,1.2,,0.0,,0.0
1979-07-01 09:04:32.210 ,0,0,1.,1.2,0.,1.2,0.,1.2,,0.0,,0.0
1979-07-01 09:04:33.410 ,0,0,0.,1.2,0.,1.2,0.,1.2,,0.0,,0.0
1979-07-01 09:04:34.610 ,0,0,0.,1.2,0.,1.2,0.,1.2,,0.0,,0.0
1979-07-01 09:04:35.810 ,0,0,0.,1.2,0.,1.2,0.,1.2,,0.0,,0.0
1979-07-01 09:04:37.010 ,0,0,0.,1.2,0.,1.2,0.,1.2,,0.0,,0.0
1979-07-01 09:04:38.210 ,0,0,0.,1.2,0.,1.2,0.,1.2,,0.0,,0.0
1979-07-01 09:04:39.410 ,0,0,0.,1.2,0.,1.2,0.,1.2,,0.0,,0.0
1979-07-01 09:04:40.610 ,0,0,0.,1.2,0.,1.2,0.,1.2,,0.0,,0.0
1979-07-01 09:04:41.810 ,0,0,0.,1.2,0.,1.2,0.,1.2,,0.0,,0.0
1979-07-01 09:04:43.010 ,0,0,,0,,0,,0,,0,,0
1979-07-01 09:04:44.210 ,0,0,,0,,0,,0,,0,,0
1979-07-01 09:04:45.410 ,0,0,,0,,0,,0,,0,,0
1979-07-01 09:04:46.610 ,0,0,,0,,0,,0,,0,,0
1979-07-01 09:04:47.810 ,5,0,0.,1.2,0.,1.2,0.,1.2,,0.0,,0.0
1979-07-01 09:04:49.010 ,5,0,0.,1.2,0.,1.2,0.,1.2,,0.0,,0.0
1979-07-01 09:04:50.210 ,5,0,0.,1.2,0.,1.2,0.,1.2,,0.0,,0.0
1979-07-01 09:04:51.410 ,5,0,0.,1.2,0.,1.2,0.,1.2,,0.0,,0.0
1979-07-01 09:04:52.610 ,5,0,0.,1.2,0.,1.2,0.,1.2,,0.0,,0.0
1979-07-01 09:04:53.810 ,5,0,0.,1.2,0.,1.2,0.,1.2,,0.0,,0.0
1979-07-01 09:04:55.010 ,5,0,0.,1.2,0.,1.2,0.,1.2,,0.0,,0.0
1979-07-01 09:04:56.210 ,5,0,0.,1.2,0.,1.2,0.,1.2,,0.0,,0.0
1979-07-01 09:04:57.410 ,5,0,0.,1.2,0.,1.2,0.,1.2,,0.0,,0.0
1979-07-01 09:04:58.610 ,5,0,0.,1.2,0.,1.2,0.,1.2,,0.0,,0.0
1979-07-01 09:04:59.810 ,5,0,0.,1.2,0.,1.2,0.,1.2,,0.0,,0.0
1979-07-01 09:05:01.010 ,5,0,0.,1.2,0.,1.2,0.,1.2,,0.0,,0.0
1979-07-01 09:05:02.210 ,5,0,0.,1.2,0.,1.2,0.,1.2,,0.0,,0.0
1979-07-01 09:05:03.410 ,5,0,0.,1.2,0.,1.2,0.,1.2,,0.0,,0.0
1979-07-01 09:05:04.610 ,5,0,0.,1.2,0.,1.2,0.,1.2,,0.0,,0.0
1979-07-01 09:05:05.810 ,5,0,0.,1.2,0.,1.2,0.,1.2,,0.0,,0.0
1979-07-01 09:05:07.010 ,5,0,0.,1.2,0.,1.2,0.,1.2,,0.0,,0.0
1979-07-01 09:05:08.210 ,5,0,0.,1.2,0.,1.2,0.,1.2,,0.0,,0.0
1979-07-01 09:05:09.410 ,5,0,1.,1.2,0.,1.2,0.,1.2,,0.0,,0.0
1979-07-01 09:05:10.610 ,5,0,0.,1.2,0.,1.2,0.,1.2,,0.0,,0.0
1979-07-01 09:05:11.810 ,5,0,0.,1.2,0.,1.2,0.,1.2,,0.0,,0.0
1979-07-01 09:05:13.010 ,5,0,0.,1.2,0.,1.2,0.,1.2,,0.0,,0.0
1979-07-01 09:05:14.210 ,5,0,0.,1.2,0.,1.2,0.,1.2,,0.0,,0.0
1979-07-01 09:05:15.410 ,5,0,0.,1.2,0.,1.2,0.,1.2,,0.0,,0.0
1979-07-01 09:05:16.610 ,5,0,1.,1.2,1.,1.2,0.,1.2,,0.0,,0.0
1979-07-01 09:05:17.810 ,5,0,1.,1.2,0.,1.2,0.,1.2,,0.0,,0.0
1979-07-01 09:05:19.010 ,5,0,0.,1.2,0.,1.2,0.,1.2,,0.0,,0.0
1979-07-01 09:05:20.210 ,5,0,0.,1.2,0.,1.2,0.,1.2,,0.0,,0.0
1979-07-01 09:05:21.410 ,5,0,0.,1.2,0.,1.2,0.,1.2,,0.0,,0.0
1979-07-01 09:05:22.610 ,5,0,0.,1.2,0.,1.2,0.,1.2,,0.0,,0.0
1979-07-01 09:05:23.810 ,5,0,0.,1.2,0.,1.2,0.,1.2,,0.0,,0.0
1979-07-01 09:05:25.010 ,5,0,0.,1.2,0.,1.2,0.,1.2,,0.0,,0.0
1979-07-01 09:05:26.210 ,5,0,0.,1.2,0.,1.2,0.,1.2,,0.0,,0.0
1979-07-01 09:05:27.410 ,5,0,1.,1.2,0.,1.2,0.,1.2,,0.0,,0.0
1979-07-01 09:05:28.610 ,5,0,1.,1.2,0.,1.2,0.,1.2,,0.0,,0.0
1979-07-01 09:05:29.810 ,5,0,0.,1.2,0.,1.2,0.,1.2,,0.0,,0.0
1979-07-01 09:05:31.010 ,5,0,0.,1.2,0.,1.2,0.,1.2,,0.0,,0.0
1979-07-01 09:05:32.210 ,5,0,0.,1.2,0.,1.2,0.,1.2,,0.0,,0.0
1979-07-01 09:05:33.410 ,5,0,0.,1.2,0.,1.2,0.,1.2,,0.0,,0.0
1979-07-01 09:05:34.610 ,5,0,0.,1.2,0.,1.2,0.,1.2,,0.0,,0.0
1979-07-01 09:05:35.810 ,6,0,0.,1.2,0.,1.2,0.,1.2,,0.0,,0.0
1979-07-01 09:05:37.010 ,6,0,0.,1.2,0.,1.2,0.,1.2,,0.0,,0.0
1979-07-01 09:05:38.210 ,6,0,0.,1.2,0.,1.2,0.,1.2,,0.0,,0.0
1979-07-01 09:05:39.410 ,6,0,0.,1.2,0.,1.2,0.,1.2,,0.0,,0.0
1979-07-01 09:05:40.610 ,6,0,0.,1.2,0.,1.2,0.,1.2,,0.0,,0.0
1979-07-01 09:05:41.810 ,6,0,0.,1.2,0.,1.2,0.,1.2,,0.0,,0.0
1979-07-01 09:05:43.010 ,6,0,0.,1.2,0.,1.2,0.,1.2,,0.0,,0.0
1979-07-01 09:05:44.210 ,6,0,1.,1.2,1.,1.2,0.,1.2,,0.0,,0.0
1979-07-01 09:05:45.410 ,6,0,0.,1.2,0.,1.2,0.,1.2,,0.0,,0.0
1979-07-01 09:05:46.610 ,6,0,0.,1.2,0.,1.2,0.,1.2,,0.0,,0.0
1979-07-01 09:05:47.810 ,6,0,0.,1.2,0.,1.2,0.,1.2,,0.0,,0.0
1979-07-01 09:05:49.010 ,6,0,1.,1.2,1.,1.2,0.,1.2,,0.0,,0.0
1979-07-01 09:05:50.210 ,6,0,0.,1.2,0.,1.2,0.,1.2,,0.0,,0.0
1979-07-01 09:05:51.410 ,6,0,1.,1.2,1.,1.2,1.,1.2,,0.0,,0.0
1979-07-01 09:05:52.610 ,6,0,0.,1.2,0.,1.2,0.,1.2,,0.0,,0.0
1979-07-01 09:05:53.810 ,6,0,0.,1.2,0.,1.2,0.,1.2,,0.0,,0.0
1979-07-01 09:05:55.010 ,6,0,0.,1.2,0.,1.2,0.,1.2,,0.0,,0.0
1979-07-01 09:05:56.210 ,6,0,0.,1.2,0.,1.2,0.,1.2,,0.0,,0.0
1979-07-01 09:05:57.410 ,6,0,1.,1.2,0.,1.2,0.,1.2,,0.0,,0.0
1979-07-01 09:05:58.610 ,6,0,0.,1.2,0.,1.2,0.,1.2,,0.0,,0.0
1979-07-01 09:05:59.810 ,6,0,1.,1.2,1.,1.2,1.,1.2,,0.0,,0.0
1979-07-01 09:06:01.010 ,6,0,0.,1.2,0.,1.2,0.,1.2,,0.0,,0.0
1979-07-01 09:06:02.210 ,6,0,1.,1.2,1.,1.2,1.,1.2,,0.0,,0.0
1979-07-01 09:06:03.410 ,6,0,0.,1.2,0.,1.2,0.,1.2,,0.0,,0.0
1979-07-01 09:06:04.610 ,6,0,0.,1.2,0.,1.2,0.,1.2,,0.0,,0.0
1979-07-01 09:06:05.810 ,6,0,0.,1.2,0.,1.2,0.,1.2,,0.0,,0.0
1979-07-01 09:06:07.010 ,6,0,0.,1.2,0.,1.2,0.,1.2,,0.0,,0.0
1979-07-01 09:06:08.210 ,6,0,1.,1.2,1.,1.2,1.,1.2,,0.0,,0.0
1979-07-01 09:06:09.410 ,6,0,0.,1.2,0.,1.2,0.,1.2,,0.0,,0.0
1979-07-01 09:06:10.610 ,6,0,0.,1.2,0.,1.2,0.,1.2,,0.0,,0.0
1979-07-01 09:06:11.810 ,6,0,0.,1.2,0.,1.2,0.,1.2,,0.0,,0.0
1979-07-01 09:06:13.010 ,6,0,0.,1.2,0.,1.2,0.,1.2,,0.0,,0.0
1979-07-01 09:06:14.210 ,6,0,0.,1.2,0.,1.2,0.,1.2,,0.0,,0.0
1979-07-01 09:06:15.410 ,6,0,0.,1.2,0.,1.2,0.,1.2,,0.0,,0.0
1979-07-01 09:06:16.610 ,6,0,0.,1.2,0.,1.2,0.,1.2,,0.0,,0.0
1979-07-01 09:06:17.810 ,6,0,0.,1.2,0.,1.2,0.,1.2,,0.0,,0.0
1979-07-01 09:06:19.010 ,6,0,0.,1.2,0.,1.2,0.,1.2,,0.0,,0.0
1979-07-01 09:06:20.210 ,6,0,0.,1.2,0.,1.2,0.,1.2,,0.0,,0.0
1979-07-01 09:06:21.410 ,6,0,0.,1.2,0.,1.2,0.,1.2,,0.0,,0.0
1979-07-01 09:06:22.610 ,6,0,0.,1.2,0.,1.2,0.,1.2,,0.0,,0.0
1979-07-01 09:06:23.810 ,7,0,0.,1.2,0.,1.2,0.,1.2,,0.0,,0.0
1979-07-01 09:06:25.010 ,7,0,0.,1.2,0.,1.2,0.,1.2,,0.0,,0.0
1979-07-01 09:06:26.210 ,7,0,0.,1.2,0.,1.2,0.,1.2,,0.0,,0.0
1979-07-01 09:06:27.410 ,7,0,0.,1.2,0.,1.2,0.,1.2,,0.0,,0.0
1979-07-01 09:06:28.610 ,7,0,0.,1.2,0.,1.2,0.,1.2,,0.0,,0.0
1979-07-01 09:06:29.810 ,7,0,0.,1.2,0.,1.2,0.,1.2,,0.0,,0.0
1979-07-01 09:06:31.010 ,7,0,0.,1.2,0.,1.2,0.,1.2,,0.0,,0.0
1979-07-01 09:06:32.210 ,7,0,0.,1.2,0.,1.2,0.,1.2,,0.0,,0.0
1979-07-01 09:06:33.410 ,7,0,0.,1.2,0.,1.2,0.,1.2,,0.0,,0.0
1979-07-01 09:06:34.610 ,7,0,0.,1.2,0.,1.2,0.,1.2,,0.0,,0.0
1979-07-01 09:06:35.810 ,7,0,0.,1.2,0.,1.2,0.,1.2,,0.0,,0.0
1979-07-01 09:06:37.010 ,7,0,0.,1.2,0.,1.2,0.,1.2,,0.0,,0.0
1979-07-01 09:06:38.210 ,7,0,0.,1.2,0.,1.2,0.,1.2,,0.0,,0.0
1979-07-01 09:06:39.410 ,7,0,0.,1.2,0.,1.2,0.,1.2,,0.0,,0.0
1979-07-01 09:06:40.610 ,7,0,0.,1.2,0.,1.2,0.,1.2,,0.0,,0.0
1979-07-01 09:06:41.810 ,7,0,0.,1.2,0.,1.2,0.,1.2,,0.0,,0.0
1979-07-01 09:06:43.010 ,7,0,0.,1.2,0.,1.2,0.,1.2,,0.0,,0.0
1979-07-01 09:06:44.210 ,7,0,0.,1.2,0.,1.2,0.,1.2,,0.0,,0.0
1979-07-01 09:06:45.410 ,7,0,0.,1.2,0.,1.2,0.,1.2,,0.0,,0.0
1979-07-01 09:06:46.610 ,7,0,0.,1.2,0.,1.2,0.,1.2,,0.0,,0.0
1979-07-01 09:06:47.810 ,7,0,0.,1.2,0.,1.2,0.,1.2,,0.0,,0.0
1979-07-01 09:06:49.010 ,7,0,0.,1.2,0.,1.2,0.,1.2,,0.0,,0.0
1979-07-01 09:06:50.210 ,7,0,0.,1.2,0.,1.2,0.,1.2,,0.0,,0.0
1979-07-01 09:06:51.410 ,7,0,0.,1.2,0.,1.2,0.,1.2,,0.0,,0.0
1979-07-01 09:06:52.610 ,7,0,0.,1.2,0.,1.2,0.,1.2,,0.0,,0.0
1979-07-01 09:06:53.810 ,7,0,0.,1.2,0.,1.2,0.,1.2,,0.0,,0.0
1979-07-01 09:06:55.010 ,7,0,0.,1.2,0.,1.2,0.,1.2,,0.0,,0.0
1979-07-01 09:06:56.210 ,7,0,0.,1.2,0.,1.2,0.,1.2,,0.0,,0.0
1979-07-01 09:06:57.410 ,7,0,,0,,0,,0,,0,,0
1979-07-01 09:06:58.610 ,7,0,0.,1.2,0.,1.2,0.,1.2,,0.0,,0.0
1979-07-01 09:06:59.810 ,7,0,0.,1.2,0.,1.2,0.,1.2,,0.0,,0.0
1979-07-01 09:07:01.010 ,7,0,0.,1.2,0.,1.2,0.,1.2,,0.0,,0.0
1979-07-01 09:07:02.210 ,7,0,0.,1.2,0.,1.2,0.,1.2,,0.0,,0.0
1979-07-01 09:07:03.410 ,7,0,0.,1.2,0.,1.2,0.,1.2,,0.0,,0.0
1979-07-01 09:07:04.610 ,7,0,0.,1.2,0.,1.2,0.,1.2,,0.0,,0.0
1979-07-01 09:07:05.810 ,7,0,0.,1.2,0.,1.2,0.,1.2,,0.0,,0.0
1979-07-01 09:07:07.010 ,7,0,0.,1.2,0.,1.2,0.,1.2,,0.0,,0.0
1979-07-01 09:07:08.210 ,7,0,0.,1.2,0.,1.2,0.,1.2,,0.0,,0.0
1979-07-01 09:07:09.410 ,7,0,0.,1.2,0.,1.2,0.,1.2,,0.0,,0.0
1979-07-01 09:07:10.610 ,7,0,1.,1.2,1.,1.2,0.,1.2,,0.0,,0.0
1979-07-01 09:07:11.810 ,3,0,0.,1.2,0.,1.2,0.,1.2,,0.0,,0.0
1979-07-01 09:07:13.010 ,3,0,0.,1.2,0.,1.2,0.,1.2,,0.0,,0.0
1979-07-01 09:07:14.210 ,3,0,0.,1.2,0.,1.2,0.,1.2,,0.0,,0.0
1979-07-01 09:07:15.410 ,3,0,0.,1.2,0.,1.2,0.,1.2,,0.0,,0.0
1979-07-01 09:07:16.610 ,3,0,0.,1.2,0.,1.2,0.,1.2,,0.0,,0.0
1979-07-01 09:07:17.810 ,3,0,0.,1.2,0.,1.2,0.,1.2,,0.0,,0.0
1979-07-01 09:07:19.010 ,3,0,0.,1.2,0.,1.2,0.,1.2,,0.0,,0.0
1979-07-01 09:07:20.210 ,3,0,0.,1.2,0.,1.2,0.,1.2,,0.0,,0.0
1979-07-01 09:07:21.410 ,3,0,0.,1.2,0.,1.2,0.,1.2,,0.0,,0.0
1979-07-01 09:07:22.610 ,3,0,2.,1.2,1.,1.2,0.,1.2,,0.0,,0.0
1979-07-01 09:07:23.810 ,3,0,0.,1.2,0.,1.2,0.,1.2,,0.0,,0.0
1979-07-01 09:07:25.010 ,3,0,0.,1.2,0.,1.2,0.,1.2,,0.0,,0.0
1979-07-01 09:07:26.210 ,3,0,0.,1.2,0.,1.2,0.,1.2,,0.0,,0.0
1979-07-01 09:07:27.410 ,3,0,0.,1.2,0.,1.2,0.,1.2,,0.0,,0.0
1979-07-01 09:07:28.610 ,3,0,0.,1.2,0.,1.2,0.,1.2,,0.0,,0.0
1979-07-01 09:07:29.810 ,3,0,0.,1.2,0.,1.2,0.,1.2,,0.0,,0.0
1979-07-01 09:07:31.010 ,3,0,0.,1.2,0.,1.2,0.,1.2,,0.0,,0.0
1979-07-01 09:07:32.210 ,3,0,0.,1.2,0.,1.2,0.,1.2,,0.0,,0.0
1979-07-01 09:07:33.410 ,3,0,0.,1.2,0.,1.2,0.,1.2,,0.0,,0.0
1979-07-01 09:07:34.610 ,3,0,0.,1.2,0.,1.2,0.,1.2,,0.0,,0.0
1979-07-01 09:07:35.810 ,0,0,0.,1.2,0.,1.2,0.,1.2,,0.0,,0.0
1979-07-01 09:07:37.010 ,0,0,0.,1.2,0.,1.2,0.,1.2,,0.0,,0.0
1979-07-01 09:07:38.210 ,0,0,0.,1.2,0.,1.2,0.,1.2,,0.0,,0.0
1979-07-01 09:07:39.410 ,0,0,0.,1.2,0.,1.2,0.,1.2,,0.0,,0.0
1979-07-01 09:07:40.610 ,0,0,0.,1.2,0.,1.2,0.,1.2,,0.0,,0.0
1979-07-01 09:07:41.810 ,0,0,0.,1.2,0.,1.2,0.,1.2,,0.0,,0.0
1979-07-01 09:07:43.010 ,0,0,0.,1.2,0.,1.2,0.,1.2,,0.0,,0.0
1979-07-01 09:07:44.210 ,0,0,0.,1.2,0.,1.2,0.,1.2,,0.0,,0.0
1979-07-01 09:07:45.410 ,0,0,0.,1.2,0.,1.2,0.,1.2,,0.0,,0.0
1979-07-01 09:07:46.610 ,0,0,0.,1.2,0.,1.2,0.,1.2,,0.0,,0.0
1979-07-01 09:07:47.810 ,0,0,0.,1.2,0.,1.2,0.,1.2,,0.0,,0.0
1979-07-01 09:07:49.010 ,0,0,0.,1.2,0.,1.2,0.,1.2,,0.0,,0.0
1979-07-01 09:07:50.210 ,0,0,0.,1.2,0.,1.2,0.,1.2,,0.0,,0.0
1979-07-01 09:07:51.410 ,0,0,0.,1.2,0.,1.2,0.,1.2,,0.0,,0.0
1979-07-01 09:07:52.610 ,0,0,0.,1.2,0.,1.2,0.,1.2,,0.0,,0.0
1979-07-01 09:07:53.810 ,0,0,0.,1.2,0.,1.2,0.,1.2,,0.0,,0.0
1979-07-01 09:07:55.010 ,0,0,0.,1.2,0.,1.2,0.,1.2,,0.0,,0.0
1979-07-01 09:07:56.210 ,0,0,2.,1.2,1.,1.2,0.,1.2,,0.0,,0.0
1979-07-01 09:07:57.410 ,0,0,0.,1.2,0.,1.2,0.,1.2,,0.0,,0.0
1979-07-01 09:07:58.610 ,0,0,0.,1.2,0.,1.2,0.,1.2,,0.0,,0.0
1979-07-01 09:07:59.810 ,4,0,1.,1.2,1.,1.2,0.,1.2,,0.0,,0.0
1979-07-01 09:08:01.010 ,4,0,1.,1.2,0.,1.2,0.,1.2,,0.0,,0.0
1979-07-01 09:08:02.210 ,4,0,0.,1.2,0.,1.2,0.,1.2,,0.0,,0.0
1979-07-01 09:08:03.410 ,4,0,0.,1.2,0.,1.2,0.,1.2,,0.0,,0.0
1979-07-01 09:08:04.610 ,4,0,1.,1.2,0.,1.2,0.,1.2,,0.0,,0.0
1979-07-01 09:08:05.810 ,4,0,1.,1.2,0.,1.2,0.,1.2,,0.0,,0.0
1979-07-01 09:08:07.010 ,4,0,1.,1.2,0.,1.2,0.,1.2,,0.0,,0.0
1979-07-01 09:08:08.210 ,4,0,0.,1.2,0.,1.2,0.,1.2,,0.0,,0.0
1979-07-01 09:08:09.410 ,4,0,0.,1.2,0.,1.2,0.,1.2,,0.0,,0.0
1979-07-01 09:08:10.610 ,4,0,0.,1.2,0.,1.2,0.,1.2,,0.0,,0.0
1979-07-01 09:08:11.810 ,4,0,0.,1.2,0.,1.2,0.,1.2,,0.0,,0.0
1979-07-01 09:08:13.010 ,4,0,0.,1.2,0.,1.2,0.,1.2,,0.0,,0.0
1979-07-01 09:08:14.210 ,4,0,0.,1.2,0.,1.2,0.,1.2,,0.0,,0.0